This is the latest recevied weather packets stored in our database for station/object SQ6XL-13. If no packets are shown the sender has not sent any weather packets the latest 10 day(s).
| Time | Temp. | Humidity | Pressure | Rain* | Wind** | Luminosity | Snow |
|---|---|---|---|---|---|---|---|
| 1778028477 | 14.44° C | 71% | 1005.8 hPa | 0 mm | - | - | - |
| 1778027938 | 14.44° C | 72% | 1005.8 hPa | 0 mm | - | - | - |
| 1778027397 | 13.89° C | 74% | 1005.9 hPa | 0 mm | - | - | - |
| 1778026877 | 13.89° C | 74% | 1006 hPa | 0 mm | - | - | - |
| 1778026327 | 13.89° C | 77% | 1006.1 hPa | 0 mm | - | - | - |
| 1778025777 | 12.78° C | 84% | 1006.3 hPa | 0 mm | - | - | - |
| 1778025242 | 12.22° C | 91% | 1006.3 hPa | 0 mm | - | - | - |
| 1778024712 | 12.22° C | 92% | 1006.2 hPa | 0 mm | - | - | - |
| 1778024172 | 12.22° C | 92% | 1006 hPa | 0 mm | - | - | - |
| 1778023597 | 12.22° C | 92% | 1006.1 hPa | 0 mm | - | - | - |
| 1778023067 | 12.22° C | 91% | 1006.1 hPa | 0 mm | - | - | - |
| 1778022557 | 12.78° C | 91% | 1006.2 hPa | 0 mm | - | - | - |
| 1778021972 | 12.78° C | 90% | 1006 hPa | 0 mm | - | - | - |
| 1778021382 | 12.78° C | 90% | 1006.1 hPa | 0 mm | - | - | - |
| 1778020852 | 12.78° C | 89% | 1006.2 hPa | 0 mm | - | - | - |
| 1778020317 | 12.78° C | 89% | 1006.3 hPa | 0 mm | - | - | - |
| 1778019767 | 13.33° C | 89% | 1006.3 hPa | 0 mm | - | - | - |
| 1778019192 | 13.33° C | 89% | 1006.4 hPa | 0 mm | - | - | - |
| 1778018612 | 13.89° C | 87% | 1006.6 hPa | 0 mm | - | - | - |
| 1778018102 | 13.89° C | 85% | 1006.6 hPa | 0 mm | - | - | - |
| 1778017517 | 14.44° C | 85% | 1006.6 hPa | 0 mm | - | - | - |
| 1778017027 | 14.44° C | 85% | 1006.7 hPa | 0 mm | - | - | - |
| 1778016532 | 14.44° C | 85% | 1006.7 hPa | 0 mm | - | - | - |
| 1778015972 | 14.44° C | 85% | 1006.9 hPa | 0 mm | - | - | - |
| 1778015397 | 15° C | 85% | 1006.9 hPa | 0 mm | - | - | - |
* Rain latest hour (hover to see other rain measurements)
** Current wind speed in m/s (hover to see current wind gust speed)